Location: Chuathbaluk
(61.5726°N, 159.2454°W)
Time: 04:42:35
(UTC+00:00)

FO-99 - Pass Details

Date: 19 January 2021
Orbit: 473 x 506 km, 97.2° (Epoch: 08 March)

Event Time Altitude Azimuth Distance (km) Brightness Sun altitude
Exits shadow 05:34:00 11° 357° (N) 1,657 ? -23.2°
Drops below altitude 10° 05:34:08 10° 356° (N) 1,707 ? -23.2°
Sets 05:36:20 0° 347° (NNW) 2,596 ? -23.5°
